Regional Weather Roundup
Issued by NWS Jackson, KY

Home | Current Version | Previous Version | Text Only | Print | Product List | Glossary Off
Versions: 1 2 3 4 5 6 7 8 9 10 11 12 13 14 15 16 17 18 19 20 21 22 23 24 25 26 27 28 29 30 31 32 33 34 35 36 37 38 39 40 41 42 43 44 45 46 47 48 49 50

000
ASUS43 KJKL 231619
RWRJKL

EAST KENTUCKY HOURLY WEATHER ROUNDUP
NATIONAL WEATHER SERVICE JACKSON KY
1200 PM EDT THU OCT 23 2014

NOTE: "FAIR" INDICATES FEW OR NO CLOUDS BELOW 12,000 FEET WITH
NO SIGNIFICANT WEATHER AND/OR OBSTRUCTIONS TO VISIBILITY.

* THESE REPORTS ARE NOT UNDER NWS QUALITY CONTROL AND MAY NOT
  REPORT WEATHER SUCH AS PRECIPITATION AND FOG.

KYZ079-080-083-085-087-088-110-112-115-119-120-231700
...EASTERN KENTUCKY...

CITY           SKY/WX    TMP DP  RH WIND       PRES   REMARKS
JACKSON        CLOUDY    52  39  61 CALM      30.24S
LONDON         SUNNY     55  39  54 E7        30.22F
SOMERSET*      SUNNY     52  39  62 SE6       30.23F
MONTICELLO*    SUNNY     55  41  59 NE8       30.24F
WILLIAMSBURG*  SUNNY     52  41  66 MISG      30.22
MIDDLESBORO*   MOSUNNY   53  40  60 CALM      30.22F
HARLAN APT*    MOSUNNY   54  37  54 SE6       30.21S
HAZARD APT*    CLOUDY    52  41  66 CALM      30.24S
BLACK MTN*       N/A     41  41 100 NE1         N/A
PIKEVILLE APT* CLOUDY    48  41  76 CALM      30.23S
BIG SANDY*     CLOUDY    52  43  72 CALM      30.23F
MOREHEAD APT*  PTSUNNY   54  41  62 NE6       30.26S
ASHLAND*       MOSUNNY   55  39  54 CALM      30.22F
$$

KYZ035-036-041-042-044-050-067-078-099-231700
...CENTRAL KENTUCKY...

CITY           SKY/WX    TMP DP  RH WIND       PRES   REMARKS
MT STERLING*   PTSUNNY   54  41  62 E7        30.25F
FLEMING/MASON* PTSUNNY   54  41  62 CALM      30.25F
DANVILLE*      SUNNY     52  41  66 E5        30.24F
RICHMOND*      SUNNY     54  39  58 CALM      30.24S
LEXINGTON      SUNNY     56  40  55 CALM      30.24F
FRANKFORT      SUNNY     53  40  61 SE5       30.23F
$$

KYZ091>093-OHZ055-061-077-WVZ005-015-034-035-042-231700
...SOUTHERN OHIO/WEST VIRGINIA...

CITY           SKY/WX    TMP DP  RH WIND       PRES   REMARKS
COVINGTON      MOSUNNY   53  39  59 CALM      30.25F
COLUMBUS       MOSUNNY   51  41  68 N8        30.24F
DAYTON         MOSUNNY   53  40  61 S3        30.26F
WILMINGTON     SUNNY     53  39  59 N5        30.24F
HUNTINGTON     CLOUDY    53  44  71 N7        30.23S
CHARLESTON     PTSUNNY   53  44  71 VRB3      30.21S
PINEVILLE*     CLOUDY    51  46  84 MISG      30.25S
BECKLEY        CLOUDY    46  38  73 NW10      30.17F
BLUEFIELD      CLOUDY    45  37  73 NW8       30.18F
$$

VAZ002-007-008-TNZ017-027-036-066-071-231700
...SOUTHWEST VIRGINIA/EAST TENNESSEE...

CITY           SKY/WX    TMP DP  RH WIND       PRES   REMARKS
WISE*          CLOUDY    45  41  87 N8        30.22S
JONESVILLE*    MOSUNNY   52  37  58 CALM      30.24S
ABINGDON*      CLOUDY    49  39  67 N6        30.20F
BRISTOL        PTSUNNY   52  39  61 NE6       30.21F
KNOXVILLE      MOSUNNY   56  42  59 NE13      30.18F
OAK RIDGE      SUNNY     57  41  55 NE10      30.21F
CROSSVILLE     SUNNY     52  40  63 CALM      30.20S
NASHVILLE      MOSUNNY   56  41  57 E9        30.23F
$$

...KEY TO REMARKS...
VSB - VISIBILITY IN MILES
WCI - WIND CHILL INDEX
HX  - HEAT INDEX

$$



USA.gov is the U.S. government's official web portal to all federal, state and local government web resources and services.